Tracking 19562 objects as of 23-Mar-2019
HD Live streaming from Space Station
objects crossing your sky now

COSMOS 1763

Track COSMOS 1763 now!
10-day predictions
COSMOS 1763 is classified as:


NORAD ID: 16860
Int'l Code: 1986-052A
Perigee: 749.0 km
Apogee: 794.4 km
Inclination: 74.0 °
Period: 100.1 minutes
Semi major axis: 7142 km
RCS: 2.3788 m2 (large)
Launch date: July 16, 1986
Source: Commonwealth of Independent States (former USSR) (CIS)
Launch site: PLESETSK MISSILE AND SPACE COMPLEX (PKMTR)
aabbcc
Your satellite tracking list
Your tracking list is empty




NASA's NSSDC Master Catalog

Two Line Element Set (TLE):
1 16860U 86052A   19081.90599782 +.00000002 +00000-0 +94442-5 0  9990
2 16860 074.0345 039.7888 0031730 330.3754 029.5601 14.38170118713736
Source of the keplerian elements: AFSPC